DateTime,DO2,DCO2
2015-07-26 11:08:30,,-24.3127
2015-07-26 11:09:00,,-24.323
2015-07-26 11:09:30,,-24.3077
2015-07-26 11:10:00,,-24.318
2015-07-26 11:10:30,,-24.3077
2015-07-26 11:11:00,,-24.3127
2015-07-26 11:11:30,,-24.2997
2015-07-26 11:12:00,,-24.2833
2015-07-26 11:12:30,,-24.3137
2015-07-26 11:13:00,,-24.301
2015-07-26 11:13:30,,-24.2973
2015-07-26 11:14:00,,-24.3097
2015-07-26 11:14:30,,-24.3043
2015-07-26 11:15:00,,-24.296
2015-07-26 11:15:30,,-24.294
2015-07-26 11:16:00,,-24.307
2015-07-26 11:16:30,,-24.3097
2015-07-26 11:17:00,,-24.2993
2015-07-26 11:17:30,,-24.3063
2015-07-26 11:18:00,,-24.3093
2015-07-26 11:18:30,,-24.306
2015-07-26 11:19:00,,-24.2917
2015-07-26 11:19:30,,-24.303
2015-07-26 11:20:00,,-24.301
2015-07-26 11:20:30,,-24.2977
2015-07-26 11:21:00,,-24.307
2015-07-26 11:21:30,,-24.3033
2015-07-26 11:22:00,,-24.3043
2015-07-26 11:22:30,,-24.31
2015-07-26 11:23:00,,-24.322
2015-07-26 11:23:30,,-24.3047
2015-07-26 11:24:00,,-24.302
2015-07-26 11:24:30,,-24.3047
2015-07-26 11:25:00,,-24.3113
2015-07-26 11:25:30,,-24.3017
2015-07-26 11:26:00,,-24.3003
2015-07-26 11:26:30,,-24.3067
2015-07-26 11:27:00,,-24.306
2015-07-26 11:27:30,,-24.3103
2015-07-26 11:28:00,,-24.2917
2015-07-26 11:28:30,,-24.301
2015-07-26 11:29:00,,-24.2873
2015-07-26 11:29:30,,-24.292
2015-07-26 11:30:00,,-24.3097
2015-07-26 11:30:30,,-24.3093
2015-07-26 11:31:00,,-24.2947
2015-07-26 11:31:30,,-24.2973
2015-07-26 11:32:00,,-24.293
2015-07-26 11:32:30,,-24.2993
2015-07-26 11:33:00,,-24.2927
2015-07-26 11:33:30,,-24.2917
2015-07-26 11:34:00,,-24.291
2015-07-26 11:34:30,,-24.2887
2015-07-26 11:35:00,,-24.3053
2015-07-26 11:35:30,,-24.2993
2015-07-26 11:36:00,,-24.293
2015-07-26 11:36:30,,-24.29
2015-07-26 11:37:00,,-24.2943
2015-07-26 11:37:30,,-24.2917
2015-07-26 11:38:00,,-24.2933
2015-07-26 11:38:30,,-24.2943
2015-07-26 11:39:00,,-24.291
2015-07-26 11:39:30,,-24.29
2015-07-26 11:40:00,,-24.2857
2015-07-26 11:40:30,,-24.2827
2015-07-26 11:41:00,,-24.2897
2015-07-26 11:41:30,,-24.2913
2015-07-26 11:42:00,,-24.2893
2015-07-26 11:42:30,,-24.2837
2015-07-26 11:43:00,,-24.2873
2015-07-26 11:43:30,,-24.2917
2015-07-26 11:44:00,,-24.2923
2015-07-26 11:44:30,,-24.288
2015-07-26 11:45:00,,-24.291
2015-07-26 11:45:30,,-24.2857
2015-07-26 11:46:00,,-24.2903
2015-07-26 11:46:30,,-24.288
2015-07-26 11:47:00,,-24.2743
2015-07-26 11:47:30,,-24.281
2015-07-26 11:48:00,,-24.3107
2015-07-26 11:48:30,,-24.3057
2015-07-26 11:49:00,,-24.2843
2015-07-26 11:49:30,,-24.3097
2015-07-26 11:50:00,,-24.2973
2015-07-26 11:50:30,,-24.2873
2015-07-26 11:51:00,,-24.2867
2015-07-26 11:51:30,,-24.2987
2015-07-26 11:52:00,,-24.29
2015-07-26 11:52:30,,-24.294
2015-07-26 11:53:00,,-24.3043
2015-07-26 11:53:30,,-24.303
2015-07-26 11:54:00,,-24.302
2015-07-26 11:54:30,,-24.2953
2015-07-26 11:55:00,,-24.298
2015-07-26 11:55:30,,-24.2987
2015-07-26 11:56:00,,-24.2947
2015-07-26 11:56:30,,-24.2847
2015-07-26 11:57:00,,-24.2847
2015-07-26 11:57:30,,-24.2903
2015-07-26 11:58:00,,-24.2893
2015-07-26 11:58:30,,-24.2937
2015-07-26 11:59:00,,-24.2827
2015-07-26 11:59:30,,-24.3003
2015-07-26 12:00:00,,-24.306
2015-07-26 12:00:30,,-24.2987
2015-07-26 12:01:00,,-24.2913
2015-07-26 12:01:30,,-24.276
2015-07-26 12:02:00,,-24.285
2015-07-26 12:02:30,,-24.303
2015-07-26 12:03:00,,-24.2957
2015-07-26 12:03:30,,-24.2933
2015-07-26 12:04:00,,-24.299
2015-07-26 12:04:30,,-24.2873
2015-07-26 12:05:00,,-24.288
2015-07-26 12:05:30,,-24.279
2015-07-26 12:06:00,,-24.2783
2015-07-26 12:06:30,,-24.2833
2015-07-26 12:07:00,,-24.2807
2015-07-26 12:07:30,,-24.285
2015-07-26 12:08:00,,-24.2823
2015-07-26 12:08:30,,-24.2887
2015-07-26 12:09:00,,-24.283
2015-07-26 12:09:30,,-24.2807
2015-07-26 12:10:00,,-24.2707
2015-07-26 12:10:30,,-24.2837
2015-07-26 12:11:00,,-24.2897
2015-07-26 12:11:30,,-24.298
2015-07-26 12:12:00,,-24.291
2015-07-26 12:12:30,,-24.3003
2015-07-26 12:13:00,,-24.292
2015-07-26 12:13:30,,-24.3067
2015-07-26 12:14:00,,-24.3023
2015-07-26 12:14:30,,-24.299
2015-07-26 12:15:00,,-24.2837
2015-07-26 12:15:30,,-24.3043
2015-07-26 12:16:00,,-24.296
2015-07-26 12:16:30,,-24.3093
2015-07-26 12:17:00,,-24.31
2015-07-26 12:17:30,,-24.3133
2015-07-26 12:18:00,,-24.306
2015-07-26 12:18:30,,-24.298
2015-07-26 12:19:00,,-24.2903
2015-07-26 12:19:30,,-24.2937
2015-07-26 12:20:00,,-24.2827
2015-07-26 12:20:30,,-24.2797
2015-07-26 12:21:00,,-24.2693
2015-07-26 12:21:30,,-24.2753
2015-07-26 12:22:00,,-24.2797
2015-07-26 12:22:30,,-24.283
2015-07-26 12:23:00,,-24.2657
2015-07-26 12:23:30,,-24.277
2015-07-26 12:24:00,,-24.2777
2015-07-26 12:24:30,,-24.2657
2015-07-26 12:25:00,,-24.2717
2015-07-26 12:25:30,,-24.269
2015-07-26 12:26:00,,-24.2767
2015-07-26 12:26:30,,-24.279
2015-07-26 12:27:00,,-24.275
2015-07-26 12:27:30,,-24.2837
2015-07-26 12:28:00,,-24.273
2015-07-26 12:28:30,,-24.275
2015-07-26 12:29:00,,-24.266
2015-07-26 12:29:30,,-24.28
2015-07-26 12:30:00,,-24.279
2015-07-26 12:30:30,,-24.2563
2015-07-26 12:31:00,,-24.264
2015-07-26 12:31:30,,-24.259
2015-07-26 12:32:00,,-24.2713
2015-07-26 12:32:30,,-24.2597
2015-07-26 12:33:00,,-24.2653
2015-07-26 12:33:30,,-24.2583
2015-07-26 12:34:00,,-24.2523
2015-07-26 12:34:30,,-24.2603
2015-07-26 12:35:00,,-24.248
2015-07-26 12:35:30,,-24.2773
2015-07-26 12:36:00,,-24.2597
2015-07-26 12:36:30,,-24.2507
2015-07-26 12:37:00,,-24.2653
2015-07-26 12:37:30,,-24.2707
2015-07-26 12:38:00,,-24.2753
2015-07-26 12:38:30,,-24.2663
2015-07-26 12:39:00,,-24.2707
2015-07-26 12:39:30,,-24.266
2015-07-26 12:40:00,,-24.261
2015-07-26 12:40:30,,-24.2617
2015-07-26 12:41:00,,-24.2683
2015-07-26 12:41:30,,-24.268
2015-07-26 12:42:00,,-24.2743
2015-07-26 12:42:30,,-24.2603
2015-07-26 12:43:00,,-24.2657
2015-07-26 12:43:30,,-24.2787
2015-07-26 12:44:00,,-24.2727
2015-07-26 12:44:30,,-24.2663
2015-07-26 12:45:00,,-24.2573
2015-07-26 12:45:30,,-24.264
2015-07-26 12:46:00,,-24.2697
2015-07-26 12:46:30,,-24.258
2015-07-26 12:47:00,,-24.2647
2015-07-26 12:47:30,,-24.2627
2015-07-26 12:48:00,,-24.2657
2015-07-26 12:48:30,,-24.2583
2015-07-26 12:49:00,,-24.2753
2015-07-26 12:49:30,,-24.2777
2015-07-26 12:50:00,,-24.2563
2015-07-26 12:50:30,,-24.2633
2015-07-26 12:51:00,,-24.271
2015-07-26 12:51:30,,-24.2597
2015-07-26 12:52:00,,-24.2677
2015-07-26 12:52:30,,-24.271
2015-07-26 12:53:00,,-24.274
2015-07-26 12:53:30,,-24.266
2015-07-26 12:54:00,,-24.2753
2015-07-26 12:54:30,,-24.262
2015-07-26 12:55:00,,-24.267
2015-07-26 12:55:30,,-24.2717
2015-07-26 12:56:00,,-24.284
2015-07-26 12:56:30,,-24.2823
2015-07-26 12:57:00,,-24.2783
2015-07-26 12:57:30,,-24.2723
2015-07-26 12:58:00,,-24.2737
2015-07-26 12:58:30,,-24.2813
2015-07-26 12:59:00,,-24.281
2015-07-26 12:59:30,,-24.2777
2015-07-26 13:00:00,,-24.2707
2015-07-26 13:00:30,,-24.2733
2015-07-26 13:01:00,,-24.271
2015-07-26 13:01:30,,-24.2787
2015-07-26 13:02:00,,-24.2863
2015-07-26 13:02:30,,-24.2797
2015-07-26 13:03:00,,-24.2853
2015-07-26 13:03:30,,-24.2857
2015-07-26 13:04:00,,-24.282
2015-07-26 13:04:30,,-24.2863
2015-07-26 13:05:00,,-24.2953
2015-07-26 13:05:30,,-24.3007
2015-07-26 13:06:00,,-24.2793
2015-07-26 13:06:30,,-24.2867
2015-07-26 13:07:00,,-24.303
2015-07-26 13:07:30,,-24.2907
2015-07-26 13:08:00,,-24.3043
2015-07-26 13:08:30,,-24.3087
2015-07-26 13:09:00,,-24.3053
2015-07-26 13:09:30,,-24.3097
2015-07-26 13:10:00,,-24.29
2015-07-26 13:10:30,,-24.2933
2015-07-26 13:11:00,,-24.3013
2015-07-26 13:11:30,,-24.308
2015-07-26 13:12:00,,-24.305
2015-07-26 13:12:30,,-24.309
2015-07-26 13:13:00,,-24.2947
2015-07-26 13:13:30,,-24.3123
2015-07-26 13:14:00,,-24.2977
2015-07-26 13:14:30,,-24.3037
2015-07-26 13:15:00,,-24.2977
2015-07-26 13:15:30,,-24.2963
2015-07-26 13:16:00,,-24.311
2015-07-26 13:16:30,,-24.3083
2015-07-26 13:17:00,,-24.31
2015-07-26 13:17:30,,-24.327
2015-07-26 13:18:00,,-24.3267
2015-07-26 13:18:30,,-24.319
2015-07-26 13:19:00,,-24.3157
2015-07-26 13:19:30,,-24.3277
2015-07-26 13:20:00,,-24.3223
2015-07-26 13:20:30,,-24.319
2015-07-26 13:21:00,,-24.3207
2015-07-26 13:21:30,,-24.3303
2015-07-26 13:22:00,,-24.3137
2015-07-26 13:22:30,,-24.322
2015-07-26 13:23:00,,-24.333
2015-07-26 13:23:30,,-24.3397
2015-07-26 13:24:00,,-24.3567
2015-07-26 13:24:30,,-24.3383
2015-07-26 13:25:00,,-24.3407
2015-07-26 13:25:30,,-24.33
2015-07-26 13:26:00,,-24.3357
2015-07-26 13:26:30,,-24.3363
2015-07-26 13:27:00,,-24.3373
2015-07-26 13:27:30,,-24.332
2015-07-26 13:28:00,,-24.3403
2015-07-26 13:28:30,,-24.342
2015-07-26 13:29:00,,-24.332
2015-07-26 13:29:30,,-24.3277
2015-07-26 13:30:00,,-24.3363
2015-07-26 13:30:30,,-24.3347
2015-07-26 13:31:00,,-24.3437
2015-07-26 13:31:30,,-24.344
2015-07-26 13:32:00,,-24.3427
2015-07-26 13:32:30,,-24.3517
2015-07-26 13:33:00,,-24.34
2015-07-26 13:33:30,,-24.351
2015-07-26 13:34:00,,-24.3433
2015-07-26 13:34:30,,-24.348
2015-07-26 13:35:00,,-24.3457
2015-07-26 13:35:30,,-24.3517
2015-07-26 13:36:00,,-24.3413
2015-07-26 13:36:30,,-24.3387
2015-07-26 13:37:00,,-24.3443
2015-07-26 13:37:30,,-24.3307
2015-07-26 13:38:00,,-24.3423
2015-07-26 13:38:30,,-24.3453
2015-07-26 13:39:00,,-24.3333
2015-07-26 13:39:30,,-24.3357
2015-07-26 13:40:00,,-24.3363
2015-07-26 13:40:30,,-24.3367
2015-07-26 13:41:00,,-24.3407
2015-07-26 13:41:30,,-24.3383
2015-07-26 13:42:00,,-24.338
2015-07-26 13:42:30,,-24.3417
2015-07-26 13:43:00,,-24.3463
2015-07-26 13:43:30,,-24.3273
2015-07-26 13:44:00,,-24.344
2015-07-26 13:44:30,,-24.349
2015-07-26 13:45:00,,-24.3317
2015-07-26 13:45:30,,-24.3413
2015-07-26 13:46:00,,-24.341
2015-07-26 13:46:30,,-24.3563
2015-07-26 13:47:00,,-24.3523
2015-07-26 13:47:30,,-24.3393
2015-07-26 13:48:00,,-24.3463
2015-07-26 13:48:30,,-24.3533
2015-07-26 13:49:00,,-24.3357
2015-07-26 13:49:30,,-24.3487
2015-07-26 13:50:00,,-24.3427
2015-07-26 13:50:30,,-24.344
2015-07-26 13:51:00,,-24.338
2015-07-26 13:51:30,,-24.345
2015-07-26 13:52:00,,-24.334
2015-07-26 13:52:30,,-24.3283
2015-07-26 13:53:00,,-24.3363
2015-07-26 13:53:30,,-24.324
2015-07-26 13:54:00,,-24.3313
2015-07-26 13:54:30,,-24.3337
2015-07-26 13:55:00,,-24.3377
2015-07-26 13:55:30,,-24.3163
2015-07-26 13:56:00,,-24.3193
2015-07-26 13:56:30,,-24.3257
2015-07-26 13:57:00,,-24.3257
2015-07-26 13:57:30,,-24.328
2015-07-26 13:58:00,,-24.3307
2015-07-26 13:58:30,,-24.3383
2015-07-26 13:59:00,,-24.3433
2015-07-26 13:59:30,,-24.3267
2015-07-26 14:00:00,,-24.3247
2015-07-26 14:00:30,,-24.324
2015-07-26 14:01:00,,-24.332
2015-07-26 14:01:30,,-24.342
2015-07-26 14:02:00,,-24.3233
2015-07-26 14:02:30,,-24.3457
2015-07-26 14:03:00,,-24.3403
2015-07-26 14:03:30,,-24.319
2015-07-26 14:04:00,,-24.346
2015-07-26 14:04:30,,-24.3293
2015-07-26 14:05:00,,-24.324
2015-07-26 14:05:30,,-24.3317
2015-07-26 14:06:00,,-24.3213
2015-07-26 14:06:30,,-24.323
2015-07-26 14:07:00,,-24.329
2015-07-26 14:07:30,,-24.3307
2015-07-26 14:08:00,,-24.323
2015-07-26 14:08:30,,-24.3207
2015-07-26 14:09:00,,-24.3187
2015-07-26 14:09:30,,-24.3297
2015-07-26 14:10:00,,-24.3257
2015-07-26 14:10:30,,-24.318
2015-07-26 14:11:00,,-24.3157
2015-07-26 14:11:30,,-24.3197
2015-07-26 14:12:00,,-24.3203
2015-07-26 14:12:30,,-24.3127
2015-07-26 14:13:00,,-24.306
2015-07-26 14:13:30,,-24.301
2015-07-26 14:14:00,,-24.306
2015-07-26 14:14:30,,-24.296
2015-07-26 14:15:00,,-24.3063
2015-07-26 14:15:30,,-24.321
2015-07-26 14:16:00,,-24.3177
2015-07-26 14:16:30,,-24.292
2015-07-26 14:17:00,,-24.2933
2015-07-26 14:17:30,,-24.3053
2015-07-26 14:18:00,,-24.308
2015-07-26 14:18:30,,-24.3067
2015-07-26 14:19:00,,-24.2983
2015-07-26 14:19:30,,-24.2937
2015-07-26 14:20:00,,-24.2983
2015-07-26 14:20:30,,-24.2923
2015-07-26 14:21:00,,-24.304
2015-07-26 14:21:30,,-24.318
2015-07-26 14:22:00,,-24.317
2015-07-26 14:22:30,,-24.3033
2015-07-26 14:23:00,,-24.3147
2015-07-26 14:23:30,,-24.3087
2015-07-26 14:24:00,,-24.3253
2015-07-26 14:24:30,,-24.3277
2015-07-26 14:25:00,,-24.316
2015-07-26 14:25:30,,-24.3187
2015-07-26 14:26:00,,-24.3323
2015-07-26 14:26:30,,-24.3307
2015-07-26 14:27:00,,-24.3173
2015-07-26 14:27:30,,-24.3183
2015-07-26 14:28:00,,-24.302
2015-07-26 14:28:30,,-24.3107
2015-07-26 14:29:00,,-24.2963
2015-07-26 14:29:30,,-24.298
2015-07-26 14:30:00,,-24.3067
2015-07-26 14:30:30,,-24.2963
2015-07-26 14:31:00,,-24.297
2015-07-26 14:31:30,,-24.2883
2015-07-26 14:32:00,,-24.296
2015-07-26 14:32:30,,-24.2787
2015-07-26 14:33:00,,-24.294
2015-07-26 14:33:30,,-24.2937
2015-07-26 14:34:00,,-24.278
2015-07-26 14:34:30,,-24.2793
2015-07-26 14:35:00,,-24.2937
2015-07-26 14:35:30,,-24.2997
2015-07-26 14:36:00,,-24.3057
2015-07-26 14:36:30,,-24.3043
2015-07-26 14:37:00,,-24.298
2015-07-26 14:37:30,,-24.3093
2015-07-26 14:38:00,,-24.3053
2015-07-26 14:38:30,,-24.2973
2015-07-26 14:39:00,,-24.301
2015-07-26 14:39:30,,-24.311
2015-07-26 14:40:00,,-24.31
2015-07-26 14:40:30,,-24.3087
2015-07-26 14:41:00,,-24.2953
2015-07-26 14:41:30,,-24.302
2015-07-26 14:42:00,,-24.2973
2015-07-26 14:42:30,,-24.2933
2015-07-26 14:43:00,,-24.3027
2015-07-26 14:43:30,,-24.292
2015-07-26 14:44:00,,-24.3027
2015-07-26 14:44:30,,-24.2887
2015-07-26 14:45:00,,-24.3027
2015-07-26 14:45:30,,-24.293
2015-07-26 14:46:00,,-24.296
2015-07-26 14:46:30,,-24.2887
2015-07-26 14:47:00,,-24.2977
2015-07-26 14:47:30,,-24.3013
2015-07-26 14:48:00,,-24.2993
2015-07-26 14:48:30,,-24.3037
2015-07-26 14:49:00,,-24.3117
2015-07-26 14:49:30,,-24.3207
2015-07-26 14:50:00,,-24.2993
2015-07-26 14:50:30,,-24.3037
2015-07-26 14:51:00,,-24.308
2015-07-26 14:51:30,,-24.2953
2015-07-26 14:52:00,,-24.3037
2015-07-26 14:52:30,,-24.3133
2015-07-26 14:53:00,,-24.3
2015-07-26 14:53:30,,-24.299
2015-07-26 14:54:00,,-24.3007
2015-07-26 14:54:30,,-24.307
2015-07-26 14:55:00,,-24.3167
2015-07-26 14:55:30,,-24.3113
2015-07-26 14:56:00,,-24.3143
2015-07-26 14:56:30,,-24.3143
2015-07-26 14:57:00,,-24.3127
2015-07-26 14:57:30,,-24.3223
2015-07-26 14:58:00,,-24.315
2015-07-26 14:58:30,,-24.3283
2015-07-26 14:59:00,,-24.3123
2015-07-26 14:59:30,,-24.316
2015-07-26 15:00:00,,-24.312
2015-07-26 15:00:30,,-24.2947
2015-07-26 15:01:00,,-24.3083
2015-07-26 15:01:30,,-24.29
2015-07-26 15:02:00,,-24.298
2015-07-26 15:02:30,,-24.2913
2015-07-26 15:03:00,,-24.2893
2015-07-26 15:03:30,,-24.2917
2015-07-26 15:04:00,,-24.2827
2015-07-26 15:04:30,,-24.2817
2015-07-26 15:05:00,,-24.3127
2015-07-26 15:05:30,,-24.2947
2015-07-26 15:06:00,,-24.3013
2015-07-26 15:06:30,,-24.2837
2015-07-26 15:07:00,,-24.2787
2015-07-26 15:07:30,,-24.284
2015-07-26 15:08:00,,-24.2587
2015-07-26 15:08:30,,-24.26
2015-07-26 15:09:00,,-24.2743
2015-07-26 15:09:30,,-24.2793
2015-07-26 15:10:00,,-24.2887
2015-07-26 15:10:30,,-24.2837
2015-07-26 15:11:00,,-24.2767
2015-07-26 15:11:30,,-24.288
2015-07-26 15:12:00,,-24.2723
2015-07-26 15:12:30,,-24.2637
2015-07-26 15:13:00,,-24.2827
2015-07-26 15:13:30,,-24.2793
2015-07-26 15:14:00,,-24.2807
2015-07-26 15:14:30,,-24.2763
2015-07-26 15:15:00,,-24.274
2015-07-26 15:15:30,,-24.2707
2015-07-26 15:16:00,,-24.2713
2015-07-26 15:16:30,,-24.2797
2015-07-26 15:17:00,,-24.267
2015-07-26 15:17:30,,-24.2713
2015-07-26 15:18:00,,-24.2707
2015-07-26 15:18:30,,-24.265
2015-07-26 15:19:00,,-24.2597
2015-07-26 15:19:30,,-24.282
2015-07-26 15:20:00,,-24.2803
2015-07-26 15:20:30,,-24.2877
2015-07-26 15:21:00,,-24.282
2015-07-26 15:21:30,,-24.2893
2015-07-26 15:22:00,,-24.2997
2015-07-26 15:22:30,,-24.2803
2015-07-26 15:23:00,,-24.2713
2015-07-26 15:23:30,,-24.2813
2015-07-26 15:24:00,,-24.2797
2015-07-26 15:24:30,,-24.297
2015-07-26 15:25:00,,-24.2863
2015-07-26 15:25:30,,-24.289
2015-07-26 15:26:00,,-24.298
2015-07-26 15:26:30,,-24.2963
2015-07-26 15:27:00,,-24.2883
2015-07-26 15:27:30,,-24.2847
2015-07-26 15:28:00,,-24.2957
2015-07-26 15:28:30,,-24.28
2015-07-26 15:29:00,,-24.277
2015-07-26 15:29:30,,-24.2863
2015-07-26 15:30:00,,-24.292
2015-07-26 15:30:30,,-24.3027
2015-07-26 15:31:00,,-24.2973
2015-07-26 15:31:30,,-24.2973
2015-07-26 15:32:00,,-24.2867
2015-07-26 15:32:30,,-24.2903
2015-07-26 15:33:00,,-24.3083
2015-07-26 15:33:30,,-24.2937
2015-07-26 15:34:00,,-24.2917
2015-07-26 15:34:30,,-24.2803
2015-07-26 15:35:00,,-24.2807
2015-07-26 15:35:30,,-24.2783
2015-07-26 15:36:00,,-24.2797
2015-07-26 15:36:30,,-24.291
2015-07-26 15:37:00,,-24.2817
2015-07-26 15:37:30,,-24.2823
2015-07-26 15:38:00,,-24.2813
2015-07-26 15:38:30,,-24.2827
2015-07-26 15:39:00,,-24.2877
2015-07-26 15:39:30,,-24.275
2015-07-26 15:40:00,,-24.2823
2015-07-26 15:40:30,,-24.283
2015-07-26 15:41:00,,-24.2887
2015-07-26 15:41:30,,-24.2837
2015-07-26 15:42:00,,-24.266
2015-07-26 15:42:30,,-24.268
2015-07-26 15:43:00,,-24.2873
2015-07-26 15:43:30,,-24.2617
2015-07-26 15:44:00,,-24.2447
2015-07-26 15:44:30,,-24.2477
2015-07-26 15:45:00,,-24.2603
2015-07-26 15:45:30,,-24.24
2015-07-26 15:46:00,,-24.247
2015-07-26 15:46:30,,-24.2383
2015-07-26 15:47:00,,-24.235
2015-07-26 15:47:30,,-24.247
2015-07-26 15:48:00,,-24.2383
2015-07-26 15:48:30,,-24.2547
2015-07-26 15:49:00,,-24.2487
2015-07-26 15:49:30,,-24.249
2015-07-26 15:50:00,,-24.2583
2015-07-26 15:50:30,,-24.2567
2015-07-26 15:51:00,,-24.2547
2015-07-26 15:51:30,,-24.268
2015-07-26 15:52:00,,-24.2553
2015-07-26 15:52:30,,-24.2687
2015-07-26 15:53:00,,-24.2717
2015-07-26 15:53:30,,-24.282
2015-07-26 15:54:00,,-24.2887
2015-07-26 15:54:30,,-24.2777
2015-07-26 15:55:00,,-24.271
2015-07-26 15:55:30,,-24.2703
2015-07-26 15:56:00,,-24.262
2015-07-26 15:56:30,,-24.2657
2015-07-26 15:57:00,,-24.2733
2015-07-26 15:57:30,,-24.264
2015-07-26 15:58:00,,-24.2627
2015-07-26 15:58:30,,-24.2573
2015-07-26 15:59:00,,-24.255
2015-07-26 15:59:30,,-24.2607
2015-07-26 16:00:00,,-24.2807
2015-07-26 16:00:30,,-24.2687
2015-07-26 16:01:00,,-24.252
2015-07-26 16:01:30,,-24.2523
2015-07-26 16:02:00,,-24.2663
2015-07-26 16:02:30,,-24.271
2015-07-26 16:03:00,,-24.2493
2015-07-26 16:03:30,,-24.2587
2015-07-26 16:04:00,,-24.2633
2015-07-26 16:04:30,,-24.2537
2015-07-26 16:05:00,,-24.258
2015-07-26 00:00:30,,-20.6377
2015-07-26 00:01:00,,-20.6377
2015-07-26 00:01:30,,-20.6377
2015-07-26 00:02:00,,-20.6303
2015-07-26 00:02:30,,-20.635
2015-07-26 00:03:00,,-20.6397
2015-07-26 00:03:30,,-20.6467
2015-07-26 00:04:00,,-20.6437
2015-07-26 00:04:30,,-20.651
2015-07-26 00:05:00,,-20.647
2015-07-26 00:05:30,,-20.655
2015-07-26 00:06:00,,-20.657
2015-07-26 00:06:30,,-20.648
2015-07-26 00:07:00,,-20.6627
2015-07-26 00:07:30,,-20.669
2015-07-26 00:08:00,,-20.668
2015-07-26 00:08:30,,-20.666
2015-07-26 00:09:00,,-20.6607
2015-07-26 00:09:30,,-20.6883
2015-07-26 00:10:00,,-20.6737
2015-07-26 00:10:30,,-20.6772
2015-07-26 00:11:00,,-20.666
2015-07-26 00:11:30,,-20.697
2015-07-26 00:12:00,,-20.7007
2015-07-26 00:12:30,,-20.6983
2015-07-26 00:13:00,,-20.7
2015-07-26 00:13:30,,-20.705
2015-07-26 00:14:00,,-20.7043
2015-07-26 00:14:30,,-20.707
2015-07-26 00:15:00,,-20.7103
2015-07-26 00:15:30,,-20.7113
2015-07-26 00:16:00,,-20.728
2015-07-26 00:16:30,,-20.7187
2015-07-26 00:17:00,,-20.7247
2015-07-26 00:17:30,,-20.7307
2015-07-26 00:18:00,,-20.7197
2015-07-26 00:18:30,,-20.7307
2015-07-26 00:19:00,,-20.7343
2015-07-26 00:19:30,,-20.739
2015-07-26 00:20:00,,-20.7487
2015-07-26 00:20:30,,-20.7487
2015-07-26 00:21:00,,-20.7603
2015-07-26 00:21:30,,-20.7643
2015-07-26 00:22:00,,-20.768
2015-07-26 00:22:30,,-20.7607
2015-07-26 00:23:00,,-20.77
2015-07-26 00:23:30,,-20.767
2015-07-26 00:24:00,,-20.7837
2015-07-26 00:24:30,,-20.7843
2015-07-26 00:25:00,,-20.7903
2015-07-26 00:25:30,,-20.7987
2015-07-26 00:26:00,,-20.7863
2015-07-26 00:26:30,,-20.8017
2015-07-26 00:27:00,,-20.8043
2015-07-26 00:27:30,,-20.7833
2015-07-26 00:28:00,,-20.8007
2015-07-26 00:28:30,,-20.819
2015-07-26 00:29:00,,-20.8197
2015-07-26 00:29:30,,-20.8057
2015-07-26 00:30:00,,-20.8157
2015-07-26 00:30:30,,-20.8213
2015-07-26 00:31:00,,-20.8177
2015-07-26 00:31:30,,-20.8257
2015-07-26 00:32:00,,-20.833
2015-07-26 00:32:30,,-20.8367
2015-07-26 00:33:00,,-20.833
2015-07-26 00:33:30,,-20.8397
2015-07-26 00:34:00,,-20.839
2015-07-26 00:34:30,,-20.841
2015-07-26 00:35:00,,-20.8547
2015-07-26 00:35:30,,-20.8467
2015-07-26 00:36:00,,-20.8593
2015-07-26 00:36:30,,-20.858
2015-07-26 00:37:00,,-20.8617
2015-07-26 00:37:30,,-20.8593
2015-07-26 00:38:00,,-20.8617
2015-07-26 00:38:30,,-20.864
2015-07-26 00:39:00,,-20.8607
2015-07-26 00:39:30,,-20.8683
2015-07-26 00:40:00,,-20.8707
2015-07-26 00:40:30,,-20.8913
2015-07-26 00:41:00,,-20.907
2015-07-26 00:41:30,,-20.884
2015-07-26 00:42:00,,-20.9073
2015-07-26 00:42:30,,-20.8963
2015-07-26 00:43:00,,-20.897
2015-07-26 00:43:30,,-20.921
2015-07-26 00:44:00,,-20.9107
2015-07-26 00:44:30,,-20.9127
2015-07-26 00:45:00,,-20.916
2015-07-26 00:45:30,,-20.9217
2015-07-26 00:46:00,,-20.921
2015-07-26 00:46:30,,-20.949
2015-07-26 00:47:00,,-20.941
2015-07-26 00:47:30,,-20.9223
2015-07-26 00:48:00,,-20.9313
2015-07-26 00:48:30,,-20.935
2015-07-26 00:49:00,,-20.9453
2015-07-26 00:49:30,,-20.9587
2015-07-26 00:50:00,,-20.9437
2015-07-26 00:50:30,,-20.94
2015-07-26 00:51:00,,-20.956
2015-07-26 00:51:30,,-20.9627
2015-07-26 00:52:00,,-20.961
2015-07-26 00:52:30,,-20.965
2015-07-26 00:53:00,,-20.9677
2015-07-26 00:53:30,,-20.9683
2015-07-26 00:54:00,,-20.9713
2015-07-26 00:54:30,,-20.9613
2015-07-26 00:55:00,,-20.9733
2015-07-26 00:55:30,,-20.9753
2015-07-26 00:56:00,,-20.9733
2015-07-26 00:56:30,,-20.994
2015-07-26 00:57:00,,-21.0023
2015-07-26 00:57:30,,-20.9933
2015-07-26 00:58:00,,-21.0053
2015-07-26 00:58:30,,-21.003
2015-07-26 00:59:00,,-21.0033
2015-07-26 00:59:30,,-21.0207
2015-07-26 01:00:00,,-21.0237
2015-07-26 01:00:51,,-21.0244
2015-07-26 01:01:00,,-21.04
2015-07-26 01:01:30,,-21.0347
2015-07-26 01:02:00,,-21.0397
2015-07-26 01:02:30,,-21.033
2015-07-26 01:03:00,,-21.0603
2015-07-26 01:03:30,,-21.0563
2015-07-26 01:04:00,,-21.0507
2015-07-26 01:04:30,,-21.0587
2015-07-26 01:05:00,,-21.0673
2015-07-26 01:05:30,,-21.083
2015-07-26 01:06:00,,-21.086
2015-07-26 01:06:30,,-21.089
2015-07-26 01:07:00,,-21.0787
2015-07-26 01:07:30,,-21.0943
2015-07-26 01:08:00,,-21.094
2015-07-26 01:08:30,,-21.107
2015-07-26 01:09:00,,-21.1153
2015-07-26 01:09:30,,-21.1053
2015-07-26 01:10:00,,-21.1183
2015-07-26 01:10:30,,-21.1273
2015-07-26 01:11:00,,-21.129
2015-07-26 01:11:30,,-21.1403
2015-07-26 01:12:00,,-21.14
2015-07-26 01:12:30,,-21.1523
2015-07-26 01:13:00,,-21.1637
2015-07-26 01:13:30,,-21.1637
2015-07-26 01:14:00,,-21.1767
2015-07-26 01:14:30,,-21.1887
2015-07-26 01:15:00,,-21.179
2015-07-26 01:15:30,,-21.181
2015-07-26 01:16:00,,-21.1967
2015-07-26 01:16:30,,-21.2127
2015-07-26 01:17:00,,-21.2113
2015-07-26 01:17:30,,-21.2127
2015-07-26 01:18:00,,-21.2123
2015-07-26 01:18:30,,-21.2337
2015-07-26 01:19:00,,-21.2433
2015-07-26 01:19:30,,-21.2413
2015-07-26 01:20:00,,-21.2543
2015-07-26 01:20:30,,-21.2647
2015-07-26 01:21:00,,-21.282
2015-07-26 01:21:30,,-21.278
2015-07-26 01:22:00,,-21.3023
2015-07-26 01:22:30,,-21.3137
2015-07-26 01:23:00,,-21.307
2015-07-26 01:23:30,,-21.3153
2015-07-26 01:24:00,,-21.3213
2015-07-26 01:24:30,,-21.3123
2015-07-26 01:25:00,,-21.3307
2015-07-26 01:25:30,,-21.341
2015-07-26 01:26:00,,-21.3327
2015-07-26 01:26:30,,-21.346
2015-07-26 01:27:00,,-21.353
2015-07-26 01:27:30,,-21.3627
2015-07-26 01:28:00,,-21.344
2015-07-26 01:28:30,,-21.3543
2015-07-26 01:29:00,,-21.3717
2015-07-26 01:29:30,,-21.3763
2015-07-26 01:30:00,,-21.378
2015-07-26 01:30:30,,-21.386
2015-07-26 01:31:00,,-21.3823
2015-07-26 01:31:30,,-21.3987
2015-07-26 01:32:00,,-21.3943
2015-07-26 01:32:30,,-21.3913
2015-07-26 01:33:00,,-21.3957
2015-07-26 01:33:30,,-21.4087
2015-07-26 01:34:00,,-21.407